Regional Weather Roundup
Issued by NWS Jackson, KY

Home | Current Version | Previous Version | Graphics & Text | Print | Product List | Glossary On
Versions: 1 2 3 4 5 6 7 8 9 10 11 12 13 14 15 16 17 18 19 20 21 22 23 24 25 26 27
000
ASUS43 KJKL 010310
RWRJKL

EAST KENTUCKY HOURLY WEATHER ROUNDUP
NATIONAL WEATHER SERVICE JACKSON KY
1100 PM EDT TUE MAY 31 2016

NOTE: "FAIR" INDICATES FEW OR NO CLOUDS BELOW 12,000 FEET WITH
NO SIGNIFICANT WEATHER AND/OR OBSTRUCTIONS TO VISIBILITY.

* THESE REPORTS ARE NOT UNDER NWS QUALITY CONTROL AND MAY NOT
  REPORT WEATHER SUCH AS PRECIPITATION AND FOG.

KYZ079-080-083-085-087-088-110-112-115-119-120-010400
...EASTERN KENTUCKY...

CITY           SKY/WX    TMP DP  RH WIND       PRES   REMARKS
JACKSON        CLEAR     73  57  57 CALM      30.00R
LONDON         CLEAR     71  61  70 NE3       29.99R
SOMERSET*      CLEAR     68  64  88 CALM      29.99R
MONTICELLO*    CLEAR     67  65  93 W9        30.00R
WILLIAMSBURG*  CLEAR     63  63 100 CALM      29.99R
MIDDLESBORO*   CLEAR     67  64  91 CALM      30.00R
HARLAN APT*      N/A     66  63  88 CALM      30.02R
HAZARD APT*    CLEAR     68  63  83 CALM      30.00R
BLACK MTN*       N/A     66  57  72 SE2         N/A
PIKE CO APT*     N/A     76  56  49 CALM      30.01R
BIG SANDY APT* CLEAR     69  61  75 CALM      30.00R
MOREHEAD APT*  PTCLDY    72  59  64 CALM      30.01R
ASHLAND*       PTCLDY    66  63  88 CALM      29.96R
$$

KYZ035-036-041-042-044-050-067-078-099-010400
...CENTRAL KENTUCKY...

CITY           SKY/WX    TMP DP  RH WIND       PRES   REMARKS
MT STERLING*   CLEAR     68  63  83 CALM      30.01R
FLEMING/MASON* CLEAR     73  64  74 CALM      30.00R
DANVILLE*      CLEAR     68  63  83 CALM      30.00R
RICHMOND*      CLEAR     68  63  83 SE3       29.98R
LEXINGTON      CLEAR     70  61  73 CALM      29.99R
FRANKFORT      CLEAR     68  60  75 CALM      29.97R
LOUISVILLE     PTCLDY    78  59  51 CALM      29.96R
LEBANON*         N/A     73  63  68 E3        29.98R
GLASGOW*       CLEAR     70  64  82 CALM      29.97R
BOWLING GREEN  CLEAR     75  64  68 CALM      29.96R
$$

KYZ091>093-OHZ055-061-077-WVZ005-015-034-035-042-010400
...SOUTHERN OHIO/WEST VIRGINIA...

CITY           SKY/WX    TMP DP  RH WIND       PRES   REMARKS
COVINGTON      CLEAR     71  60  68 CALM      29.98R
COLUMBUS       MOCLDY    72  57  59 NE5       30.00R
DAYTON         CLOUDY    74  55  51 E9        30.01R
WILMINGTON     PTCLDY    71  61  70 CALM      29.99R
HUNTINGTON       N/A     69  59  70 CALM      29.97R
CHARLESTON       N/A     68  60  75 CALM      30.00R
PINEVILLE*       N/A     65  59  80 MISG      30.10R
BECKLEY          N/A     68  54  60 SE6       30.08R
BLUEFIELD      CLOUDY    65  57  75 NE7       30.12R
LOGAN CO APT*    N/A     75  57  53 CALM      30.02R
$$

VAZ002-007-008-TNZ017-027-036-066-071-010400
...SOUTHWEST VIRGINIA/EAST TENNESSEE...

CITY           SKY/WX    TMP DP  RH WIND       PRES   REMARKS
WISE*            N/A     68  54  60 CALM      30.09S
JONESVILLE*      N/A     68  63  83 CALM      30.03R
ABINGDON*        N/A     69  62  78 CALM      30.06S
BRISTOL        PTCLDY    70  61  73 CALM      30.02R
SEVIERVILLE*   CLEAR     68  63  83 CALM      29.96S
KNOXVILLE      PTCLDY    77  63  61 E3        29.95R
OAK RIDGE      CLEAR     73  63  70 CALM      29.97R
CROSSVILLE     CLEAR     70  64  81 CALM      30.03R
NASHVILLE      CLEAR     78  60  53 N3        29.96R
$$

...KEY TO REMARKS...
VSB - VISIBILITY IN MILES
WCI - WIND CHILL INDEX
HX  - HEAT INDEX

$$




USA.gov is the U.S. government's official web portal to all federal, state and local government web resources and services.